This is the latest recevied weather packets stored in our database for station/object N2XP-3. If no packets are shown the sender has not sent any weather packets the latest 10 day(s).
| Time | Temp. | Humidity | Pressure | Rain* | Wind** | Luminosity | Snow |
|---|---|---|---|---|---|---|---|
| 1777725608 | 8.89° C | 87% | 1010.5 hPa | 0 mm | 0 m/s | - | - |
| 1777725308 | 9.44° C | 87% | 1010.3 hPa | 0 mm | 3.13 m/s, 84° | - | - |
| 1777725008 | 9.44° C | 86% | 1010.1 hPa | 0 mm | 1.34 m/s, 184° | - | - |
| 1777724731 | 10° C | 87% | 1010 hPa | 0 mm | 2.24 m/s, 221° | - | - |
| 1777724691 | 10° C | 87% | 1010 hPa | 0 mm | 2.24 m/s, 221° | - | - |
| 1777724391 | 10.56° C | 86% | 1009.8 hPa | 0 mm | 0.89 m/s, 1° | - | - |
| 1777724092 | 10° C | 88% | 1009.8 hPa | 0 mm | 0.89 m/s, 93° | - | - |
| 1777723786 | 10° C | 88% | 1009.8 hPa | 0 mm | 0.45 m/s, 325° | - | - |
| 1777723487 | 10° C | 88% | 1009.7 hPa | 0 mm | 0.45 m/s, 38° | - | - |
| 1777723187 | 10° C | 88% | 1009.7 hPa | 0 mm | 1.34 m/s, 163° | - | - |
| 1777722882 | 10° C | 88% | 1009.7 hPa | 0 mm | 0 m/s | - | - |
| 1777722582 | 10.56° C | 88% | 1009.7 hPa | 0 mm | 1.34 m/s, 148° | - | - |
| 1777722279 | 10.56° C | 88% | 1009.8 hPa | 0 mm | 2.24 m/s, 65° | - | - |
| 1777721976 | 11.67° C | 87% | 1009.8 hPa | 0 mm | 1.79 m/s, 107° | - | - |
| 1777721673 | 12.78° C | 85% | 1009.9 hPa | 0 mm | 0 m/s | - | - |
| 1777721371 | 13.89° C | 86% | 1009.8 hPa | 0 mm | 0 m/s | - | - |
| 1777721136 | 13.89° C | 91% | 1009.7 hPa | 0 mm | 0 m/s | - | - |
| 1777721067 | 13.89° C | 91% | 1009.7 hPa | 0 mm | 0 m/s | - | - |
| 1777720464 | 12.22° C | 97% | 1009.7 hPa | 0 mm | 0 m/s | - | - |
| 1777720159 | 10.56° C | 100% | 1009.6 hPa | 0 mm | 0 m/s | - | - |
| 1777719858 | 8.89° C | 99% | 1009.5 hPa | 0 mm | 0 m/s | - | - |
| 1777719558 | 8.33° C | 99% | 1009.5 hPa | 0 mm | 0 m/s | - | - |
| 1777719248 | 8.33° C | 98% | 1009.5 hPa | 0 mm | 0 m/s | - | - |
| 1777718949 | 7.78° C | 98% | 1009.6 hPa | 0 mm | 0 m/s | - | - |
| 1777718636 | 7.78° C | 98% | 1009.5 hPa | 0 mm | 0 m/s | - | - |
* Rain latest hour (hover to see other rain measurements)
** Current wind speed in m/s (hover to see current wind gust speed)